Theta_e
313 314 317 317 317 318 318 320 320 317 316 314 313 312 312 312 313 313 315 316 317 319 321 322 321 322 322 322 321 320 320 320 318 317 316 316 315 313 312 311 309 308 308 308
311 313 313 315 316 317 319 320 320 318 314 315 315 315 315 312 311 312 313 314 315 315 315 315 316 318 319 318 316 316 316 317 317 316 316 315 315 313 312 312 308 308 308 308
312 314 313 315 314 315 315 319 317 318 315 313 312 313 312 312 314 313 313 315 314 315 315 315 315 314 313 313 313 314 315 317 316 315 315 314 314 313 312 311 309 308 308 307
313 312 314 313 314 313 315 313 314 317 315 314 312 314 312 311 311 311 313 313 313 313 314 315 315 315 314 313 313 314 316 316 316 315 314 314 313 313 312 311 309 308 307 307
313 312 313 314 314 313 314 312 313 313 315 314 313 313 312 310 313 312 312 314 315 315 315 315 315 315 315 313 313 314 315 315 315 315 315 314 313 312 311 308 308 307 307 307
311 310 311 313 312 312 311 312 310 310 310 308 311 311 313 312 313 313 314 315 315 315 314 315 315 314 315 313 313 314 314 314 314 314 313 313 312 311 310 308 308 307 307 306
311 311 310 311 313 311 310 311 310 308 307 312 310 312 312 311 311 310 311 313 314 314 315 314 314 314 314 314 313 313 313 314 314 313 313 312 311 310 309 308 308 307 307 306
313 314 310 310 312 313 311 311 312 312 312 313 311 313 312 310 310 311 311 312 313 314 314 315 314 314 314 314 313 312 312 313 313 312 312 312 310 310 309 308 308 307 306 305
310 311 307 309 309 311 311 311 310 312 305 310 310 309 307 307 307 308 309 310 311 312 313 314 313 313 313 313 313 312 311 311 311 312 311 311 310 309 309 308 307 306 306 304
307 308 307 309 309 309 310 309 312 309 309 312 310 310 310 308 308 306 307 309 311 311 312 313 313 314 313 313 313 312 311 310 310 310 310 309 309 308 308 307 306 306 305 303
306 306 306 309 309 309 310 310 310 310 309 313 311 309 305 308 307 306 307 309 310 310 311 312 312 313 313 313 312 311 310 309 309 308 308 308 307 306 306 305 305 305 305 304
304 305 306 305 306 306 307 309 309 311 310 308 310 312 307 304 304 305 306 308 308 309 310 311 312 312 312 312 312 311 310 309 308 308 307 307 306 305 305 304 304 304 304 303
304 300 299 304 302 304 306 307 309 309 309 311 311 311 305 307 305 307 308 309 310 310 310 311 311 311 311 311 311 310 310 309 308 307 306 306 306 305 305 304 304 303 303 302
306 304 304 304 304 304 307 306 307 309 312 312 312 311 310 308 306 308 309 308 310 310 310 310 310 310 310 310 310 310 309 308 307 305 305 305 304 304 304 303 303 302 302 300
304 300 301 304 304 305 305 305 305 306 307 308 309 309 309 308 307 309 309 309 310 310 310 310 310 310 310 310 310 309 309 308 306 305 305 304 304 304 303 303 302 301 300 299
303 303 304 303 305 304 305 305 305 305 305 306 305 306 306 307 306 306 306 307 307 308 309 309 309 308 308 309 309 309 309 309 307 305 305 304 304 303 303 302 301 300 298 297
299 302 297 304 300 299 302 302 304 305 305 305 306 306 305 305 304 304 304 305 305 306 306 305 305 305 305 305 306 306 307 307 306 305 304 303 303 303 302 301 300 299 298 296
294 292 295 300 298 303 301 299 300 302 303 303 304 304 305 305 305 305 304 304 304 303 303 302 303 303 304 304 305 305 305 306 306 305 304 303 302 302 301 300 300 298 296 295
298 297 300 301 299 300 300 299 300 303 302 301 301 301 302 304 303 303 304 302 302 301 300 299 299 302 303 304 304 304 304 304 304 304 304 304 303 302 301 300 299 297 295 293
294 299 300 290 295 290 295 296 297 300 299 299 299 299 300 300 302 301 303 302 298 297 296 297 298 298 299 302 303 303 303 303 303 304 305 303 301 300 299 300 299 297 295 292
293 294 298 296 296 290 292 294 296 293 295 300 300 301 300 298 297 296 296 296 295 296 296 295 296 300 299 300 301 304 303 304 304 302 301 300 300 300 299 298 297 296 293 291
289 292 291 284 286 291 294 295 294 296 297 298 298 298 295 295 295 295 295 295 295 296 297 298 299 296 295 297 298 300 303 304 303 302 300 299 298 298 298 297 296 294 292 289
286 289 289 291 291 293 294 297 298 298 299 299 297 295 294 295 295 295 295 293 294 298 299 300 299 297 296 295 297 299 300 302 302 301 301 300 297 295 294 296 296 294 291 289
284 288 286 289 289 291 294 295 295 295 294 294 294 294 294 294 294 294 293 293 294 294 294 295 296 296 295 295 296 299 300 301 301 300 299 298 297 294 292 292 293 293 292 289
289 288 287 289 292 293 293 293 294 294 294 294 294 294 293 293 292 292 292 291 291 291 291 292 292 293 293 294 295 297 300 300 300 299 297 296 294 293 291 291 291 292 293 292
290 291 291 292 293 293 293 293 293 293 292 292 292 292 292 291 291 291 291 291 291 290 290 290 291 292 292 293 294 295 300 300 299 298 296 294 292 291 290 290 288 289 288 290
Wind_Speed
5 6 3 5 3 4 6 4 2 3 2 1 6 7 9 14 20 24 28 30 32 33 30 28 29 28 28 28 26 25 24 24 22 21 20 18 16 14 14 10 8 8 6 6
6 5 0 4 4 6 6 4 1 2 2 2 5 9 12 13 19 30 34 36 38 35 32 29 30 29 29 27 27 28 27 26 24 21 20 18 16 16 16 12 10 9 8 7
6 3 1 5 5 6 3 3 1 1 3 1 6 8 5 5 22 26 37 40 38 38 37 34 32 31 28 28 27 27 27 27 26 22 23 21 20 19 20 17 12 10 9 9
5 3 3 5 4 4 2 2 2 2 4 2 4 5 6 4 7 9 24 29 36 37 39 36 34 32 30 28 26 26 27 28 28 26 25 24 22 20 20 20 15 13 11 10
1 1 3 3 3 3 2 3 2 2 2 3 4 1 8 4 6 8 14 26 33 39 41 39 36 34 31 28 27 25 27 28 29 28 27 24 22 22 22 19 16 15 13 11
2 1 1 3 2 3 3 4 6 4 3 2 3 4 6 3 4 6 4 9 15 24 31 35 35 34 32 28 27 27 28 28 28 28 28 27 26 25 23 20 17 16 15 12
1 1 0 2 4 3 5 5 3 5 3 4 1 3 9 10 11 7 14 25 19 16 20 26 31 34 33 32 30 29 29 29 28 29 29 29 27 25 23 23 20 16 15 13
4 3 5 3 5 5 5 6 4 4 3 4 2 6 6 7 7 12 12 14 15 16 17 21 25 28 31 32 31 29 29 29 29 30 29 29 27 28 27 25 21 18 17 15
4 4 2 2 2 7 4 4 4 2 1 1 5 6 9 7 7 9 15 13 14 15 16 18 21 23 27 30 30 29 29 28 29 28 29 30 28 28 27 25 23 20 19 18
2 1 1 2 2 1 5 6 2 1 2 5 4 4 7 7 6 9 9 10 11 13 14 16 16 18 20 25 27 28 29 29 27 29 30 30 29 29 29 27 25 23 21 20
2 2 3 2 4 7 2 3 2 4 4 3 3 5 6 6 4 6 13 14 18 22 15 12 13 14 17 22 26 28 29 29 29 30 31 31 30 29 28 27 25 24 23 21
6 3 3 8 2 3 3 2 6 4 5 4 3 12 4 8 8 9 22 24 23 17 11 10 10 11 15 22 26 28 29 31 31 31 32 32 30 30 29 28 27 26 24 23
4 2 2 8 5 2 5 5 5 2 1 8 7 11 1 2 6 8 10 15 18 18 13 10 13 21 21 24 27 29 30 31 32 32 33 33 33 32 30 29 29 28 27 27
7 4 6 6 4 1 3 5 8 8 8 19 17 24 30 16 11 23 34 34 42 35 26 26 27 28 28 29 31 32 33 33 33 33 34 35 35 33 31 30 30 31 30 29
3 3 1 4 4 1 6 9 8 8 19 15 23 21 25 24 8 18 24 30 33 34 37 40 40 35 34 35 34 34 35 36 36 35 36 37 36 34 34 34 33 32 32 31
3 2 2 4 6 8 17 15 13 15 16 16 18 22 23 42 27 28 32 27 29 34 37 40 41 38 39 41 40 40 40 41 40 38 37 36 38 38 37 36 35 34 33 33
4 2 2 10 2 7 15 9 15 16 21 14 19 25 26 24 28 28 22 22 30 34 31 33 35 35 36 36 37 42 43 45 44 42 40 39 39 41 40 39 38 38 37 36
5 4 3 2 2 12 1 4 3 6 12 13 17 21 27 31 41 44 25 29 23 15 18 22 24 28 31 33 35 34 34 40 44 44 45 42 42 43 43 42 41 40 39 39
7 4 2 4 7 17 19 6 3 5 22 9 8 14 27 32 24 29 20 3 17 23 26 30 33 32 32 33 35 33 35 36 42 44 45 45 47 46 46 46 45 43 42 41
3 5 6 3 4 7 3 4 9 3 17 17 18 19 20 11 10 7 10 24 41 41 41 39 39 40 38 33 35 33 31 34 38 37 40 45 48 49 49 46 46 45 44 43
4 3 14 10 8 8 7 9 1 5 13 10 5 4 9 3 13 36 40 41 44 43 41 39 37 34 33 32 32 33 32 34 33 36 40 43 44 47 46 46 47 47 46 45
8 9 5 2 2 10 11 2 8 12 13 13 13 21 26 41 48 41 51 44 43 46 41 33 33 31 31 29 31 32 34 31 32 33 36 38 41 44 44 46 48 48 47 47
2 8 6 10 9 8 10 18 13 18 23 31 33 36 35 39 43 47 40 49 44 40 38 34 29 38 39 34 31 34 33 34 33 34 35 35 38 41 43 46 49 49 50 49
4 6 2 1 8 16 40 36 40 49 50 49 46 49 47 41 40 44 49 44 44 47 48 43 44 48 50 42 35 35 35 35 38 36 36 36 38 39 42 45 49 51 53 52
4 9 6 11 16 32 43 43 50 53 49 45 42 42 43 45 49 47 50 50 48 47 46 46 48 48 47 41 39 35 35 37 38 40 39 39 39 39 42 45 51 53 53 52
11 17 6 13 31 29 36 37 41 40 42 41 43 51 52 51 53 50 51 53 53 52 50 50 48 47 49 44 40 37 34 37 38 39 41 43 42 42 42 44 50 50 51 49
Wind_Direction
40 72 125 164 81 69 103 75 53 301 357 184 245 264 269 226 224 236 236 236 236 236 238 238 241 238 238 239 237 232 232 238 239 246 254 251 266 283 290 280 269 267 263 269
37 67 245 125 54 87 71 90 347 287 4 187 313 273 258 213 220 226 233 234 236 239 240 237 239 240 240 241 240 235 231 231 237 243 249 252 268 273 279 283 262 263 261 265
88 331 102 118 75 69 51 112 212 198 350 54 327 281 265 274 232 231 237 244 244 240 239 236 237 240 240 239 236 232 226 223 232 236 241 246 252 260 269 280 261 257 261 262
87 340 79 71 74 108 49 315 80 79 44 299 37 292 302 302 285 239 247 246 245 247 245 243 240 240 241 240 234 229 226 225 229 232 240 245 254 264 265 273 258 254 255 257
109 87 131 138 149 120 198 47 78 105 72 24 345 34 274 346 300 272 252 252 255 253 249 246 241 241 243 239 236 231 227 227 228 234 240 242 247 257 260 261 248 251 251 255
79 77 101 145 96 111 100 52 39 49 61 11 249 145 282 241 231 307 286 304 277 259 253 248 244 240 238 236 235 233 230 231 232 235 237 237 250 250 249 248 249 244 248 253
83 221 186 135 92 54 77 71 338 359 5 236 154 211 257 274 263 232 272 295 296 279 255 249 242 236 233 234 235 234 234 234 235 237 239 243 244 246 243 248 250 245 247 250
165 302 178 188 171 171 169 152 162 237 225 267 102 241 244 225 270 290 274 280 293 292 262 254 250 242 236 235 237 239 240 240 240 239 242 245 244 242 244 248 252 247 244 243
151 266 345 146 147 143 181 167 176 53 74 8 229 288 298 325 316 297 277 277 284 292 282 261 252 249 245 241 241 245 246 245 244 246 246 246 246 246 249 251 252 243 242 238
224 288 196 9 130 23 161 161 93 21 259 258 274 272 242 294 324 328 330 318 319 307 292 272 258 252 249 247 247 248 251 251 250 248 248 248 248 246 247 248 246 242 241 237
157 124 301 63 199 180 134 189 150 161 173 227 312 262 218 234 274 272 292 307 319 316 294 287 272 265 260 256 252 252 253 254 251 248 247 248 247 246 247 247 244 243 243 241
206 161 209 230 234 14 325 268 166 176 233 233 256 262 210 243 268 294 294 306 310 309 294 285 277 269 268 265 257 256 255 254 253 253 250 247 247 246 246 246 245 243 243 240
186 281 19 332 357 77 203 194 220 289 138 239 243 264 154 291 316 320 309 325 335 334 315 288 291 301 293 279 268 260 258 259 257 254 251 248 245 243 242 242 244 244 241 235
164 177 183 190 196 137 246 219 218 206 237 250 246 266 277 271 300 298 293 300 302 306 296 289 287 295 291 283 275 268 264 261 259 255 251 250 248 246 243 241 240 241 240 236
89 206 201 253 259 266 245 250 253 230 246 247 262 256 272 277 258 275 292 290 293 299 298 297 296 295 293 288 283 274 269 263 257 255 254 252 249 246 243 240 238 238 237 233
23 279 44 285 298 270 267 271 268 261 261 269 268 277 268 288 288 277 276 289 294 294 294 294 298 301 298 292 284 282 275 269 258 254 254 252 247 243 241 239 238 236 232 228
141 181 113 275 342 322 271 231 243 255 250 251 259 262 277 276 281 281 298 302 296 296 301 305 305 305 305 302 298 293 288 274 265 257 255 252 248 243 240 238 235 233 229 226
147 111 141 260 21 257 139 47 351 272 259 255 261 265 268 276 280 285 296 292 293 304 319 326 328 323 319 316 305 296 288 280 271 260 254 253 249 244 240 238 236 233 229 227
183 129 267 256 243 283 299 306 243 232 277 228 238 264 271 274 290 295 298 227 337 332 327 326 326 323 323 322 316 302 287 283 273 265 258 255 252 245 240 237 235 231 229 227
155 218 208 99 253 257 12 81 343 274 274 285 257 263 279 347 304 306 302 308 308 307 311 311 311 311 311 316 319 312 298 284 276 274 269 256 252 248 243 239 236 232 230 229
120 186 220 227 246 276 250 249 116 156 269 352 332 315 311 280 275 297 304 308 310 307 302 303 300 296 303 307 312 312 304 295 297 283 273 261 255 251 246 242 237 234 230 228
161 168 191 143 190 279 237 213 181 227 278 281 273 281 292 302 304 302 306 307 310 309 308 301 291 294 305 301 301 303 300 308 293 287 276 266 258 251 243 238 237 233 230 228
268 186 186 185 208 231 224 229 227 265 270 274 275 282 290 295 292 298 297 303 302 302 302 299 281 297 304 311 295 291 300 299 292 281 275 269 259 251 244 236 232 230 229 227
279 186 182 81 225 241 258 264 265 266 271 280 286 293 297 294 295 296 299 297 295 294 293 293 293 294 299 303 302 290 294 294 289 281 272 265 257 249 241 237 233 229 227 226
171 141 199 257 273 267 265 263 270 276 281 285 288 288 290 291 291 292 292 293 296 296 294 292 291 291 291 293 295 296 294 295 288 281 271 261 255 247 241 237 235 230 231 229
180 230 207 250 254 247 270 271 278 281 283 284 284 285 287 290 291 295 294 296 296 295 295 293 289 286 287 288 287 290 289 291 288 276 268 260 252 245 238 234 231 232 235 232